| time (UTC) | temp C | wind direction | speed KPH | gust KPH | rain 1hr cm | rain 24hr cm | rain mn cm | humidity % | barometer mb |
| 20260901052253 | 28 | 127 | 4.8 | 6.4 | 0.00 | 0.00 | 0.00 | 68 | 1017.2 |
| 20260901051751 | 28 | 164 | 8.0 | 11.3 | 0.00 | 0.00 | 0.00 | 67 | 1017.3 |
| 20260901051246 | 29 | 136 | 9.7 | 11.3 | 0.00 | 0.00 | 0.00 | 67 | 1017.2 |
| 20260901050742 | 29 | 132 | 9.7 | 12.9 | 0.00 | 0.00 | 0.00 | 67 | 1017.2 |
| 20260901050237 | 29 | 186 | 4.8 | 6.4 | 0.00 | 0.00 | 0.00 | 66 | 1017.1 |
| 20260901045732 | 29 | 108 | 6.4 | 9.7 | 0.00 | 0.00 | 0.00 | 66 | 1016.9 |
| 20260901045227 | 29 | 173 | 6.4 | 9.7 | 0.00 | 0.00 | 0.00 | 66 | 1017.1 |
| 20260901044722 | 29 | 199 | 3.2 | 4.8 | 0.00 | 0.00 | 0.00 | 66 | 1017.0 |
| 20260901044219 | 29 | 105 | 9.7 | 11.3 | 0.00 | 0.00 | 0.00 | 65 | 1017.1 |
| 20260901043714 | 30 | 146 | 4.8 | 11.3 | 0.00 | 0.00 | 0.00 | 65 | 1017.1 |
| 20260901043209 | 30 | 159 | 3.2 | 4.8 | 0.00 | 0.00 | 0.00 | 65 | 1017.1 |
| 20260901042709 | 30 | 209 | 11.3 | 14.5 | 0.00 | 0.00 | 0.00 | 64 | 1017.0 |
| 20260901042203 | 30 | 212 | 3.2 | 4.8 | 0.00 | 0.00 | 0.00 | 64 | 1017.0 |
| 20260901041659 | 30 | 116 | 11.3 | 12.9 | 0.00 | 0.00 | 0.00 | 63 | 1016.8 |
| 20260901041158 | 30 | 116 | 14.5 | 16.1 | 0.00 | 0.00 | 0.00 | 63 | 1016.8 |
| 20260901040654 | 30 | 74 | 9.7 | 12.9 | 0.00 | 0.00 | 0.00 | 62 | 1016.8 |
| 20260901040147 | 30 | 113 | 8.0 | 12.9 | 0.00 | 0.00 | 0.00 | 61 | 1017.0 |
| 20260901035646 | 30 | 139 | 12.9 | 12.9 | 0.00 | 0.00 | 0.00 | 61 | 1016.8 |
| 20260901035144 | 30 | 139 | 6.4 | 9.7 | 0.00 | 0.00 | 0.00 | 60 | 1016.9 |
| 20260901034638 | 30 | 119 | 11.3 | 14.5 | 0.00 | 0.00 | 0.00 | 60 | 1016.8 |
| 20260901034133 | 30 | 112 | 8.0 | 14.5 | 0.00 | 0.00 | 0.00 | 59 | 1016.9 |
| 20260901033632 | 30 | 146 | 16.1 | 17.7 | 0.00 | 0.00 | 0.00 | 59 | 1017.2 |
| 20260901033132 | 30 | 139 | 9.7 | 12.9 | 0.00 | 0.00 | 0.00 | 58 | 1016.8 |
| 20260901032630 | 30 | 133 | 11.3 | 14.5 | 0.00 | 0.00 | 0.00 | 58 | 1016.9 |
| 20260901032126 | 31 | 67 | 11.3 | 16.1 | 0.00 | 0.00 | 0.00 | 57 | 1016.7 |
| 20260901031621 | 31 | 114 | 12.9 | 17.7 | 0.00 | 0.00 | 0.00 | 56 | 1016.8 |
| 20260901031117 | 31 | 115 | 4.8 | 6.4 | 0.00 | 0.00 | 0.00 | 56 | 1016.7 |
| 20260901030617 | 31 | 149 | 14.5 | 22.5 | 0.00 | 0.00 | 0.00 | 54 | 1016.5 |
| 20260901030112 | 31 | 116 | 9.7 | 12.9 | 0.00 | 0.00 | 0.00 | 53 | 1016.6 |
| 20260901025606 | 31 | 62 | 8.0 | 12.9 | 0.00 | 0.00 | 0.00 | 51 | 1016.4 |
| 20260901025101 | 31 | 100 | 4.8 | 6.4 | 0.00 | 0.00 | 0.00 | 50 | 1016.4 |
| 20260901024555 | 32 | 137 | 8.0 | 11.3 | 0.00 | 0.00 | 0.00 | 48 | 1016.3 |
| 20260901024054 | 32 | 110 | 8.0 | 9.7 | 0.00 | 0.00 | 0.00 | 47 | 1016.1 |
| 20260901023553 | 32 | 153 | 6.4 | 6.4 | 0.00 | 0.00 | 0.00 | 46 | 1016.1 |
| 20260901023048 | 32 | 84 | 4.8 | 4.8 | 0.00 | 0.00 | 0.00 | 45 | 1015.9 |
| 20260901022543 | 32 | 121 | 6.4 | 9.7 | 0.00 | 0.00 | 0.00 | 45 | 1015.9 |
| 20260901022039 | 32 | 78 | 3.2 | 4.8 | 0.00 | 0.00 | 0.00 | 45 | 1015.9 |
| 20260901021534 | 32 | 68 | 8.0 | 9.7 | 0.00 | 0.00 | 0.00 | 44 | 1015.8 |
| 20260901021030 | 32 | 81 | 3.2 | 4.8 | 0.00 | 0.00 | 0.00 | 44 | 1015.8 |
| 20260901020525 | 32 | 80 | 6.4 | 6.4 | 0.00 | 0.00 | 0.00 | 44 | 1015.6 |
| 20260901020020 | 32 | 113 | 1.6 | 3.2 | 0.00 | 0.00 | 0.00 | 44 | 1015.7 |
| 20260901015516 | 32 | 123 | 6.4 | 9.7 | 0.00 | 0.00 | 0.00 | 43 | 1015.5 |
| 20260901015015 | 32 | 106 | 3.2 | 3.2 | 0.00 | 0.00 | 0.00 | 44 | 1015.6 |
| 20260901014511 | 32 | 100 | 4.8 | 4.8 | 0.00 | 0.00 | 0.00 | 43 | 1015.3 |
| 20260901014007 | 32 | 84 | 1.6 | 3.2 | 0.00 | 0.00 | 0.00 | 44 | 1015.3 |
| 20260901013502 | 33 | 94 | 4.8 | 6.4 | 0.00 | 0.00 | 0.00 | 43 | 1015.4 |
| 20260901012958 | 33 | 85 | 3.2 | 3.2 | 0.00 | 0.00 | 0.00 | 43 | 1015.5 |
| 20260901012457 | 33 | 49 | 0.0 | 0.0 | 0.00 | 0.00 | 0.00 | 43 | 1015.4 |
| 20260901011953 | 33 | 70 | 6.4 | 9.7 | 0.00 | 0.00 | 0.00 | 42 | 1015.4 |
| 20260901011449 | 33 | 69 | 4.8 | 6.4 | 0.00 | 0.00 | 0.00 | 43 | 1015.3 |
| 20260901010946 | 33 | 67 | 3.2 | 4.8 | 0.00 | 0.00 | 0.00 | 43 | 1015.0 |
| 20260901010442 | 33 | 72 | 3.2 | 4.8 | 0.00 | 0.00 | 0.00 | 42 | 1015.2 |
| 20260901005941 | 33 | 74 | 1.6 | 1.6 | 0.00 | 0.00 | 0.00 | 42 | 1015.2 |
| 20260901005436 | 33 | 94 | 3.2 | 3.2 | 0.00 | 0.00 | 0.00 | 41 | 1015.1 |
| 20260901004931 | 34 | 109 | 4.8 | 6.4 | 0.00 | 0.00 | 0.00 | 40 | 1015.2 |
| 20260901004430 | 34 | 72 | 3.2 | 4.8 | 0.00 | 0.00 | 0.00 | 40 | 1015.1 |
| 20260901003925 | 34 | 72 | 6.4 | 6.4 | 0.00 | 0.00 | 0.00 | 39 | 1015.1 |
| 20260901003420 | 35 | 78 | 6.4 | 6.4 | 0.00 | 0.00 | 0.00 | 39 | 1015.2 |
| 20260901002918 | 35 | 115 | 4.8 | 4.8 | 0.00 | 0.00 | 0.00 | 39 | 1015.0 |
| 20260901002413 | 35 | 82 | 6.4 | 9.7 | 0.00 | 0.00 | 0.00 | 38 | 1015.1 |
| 20260901001908 | 35 | 131 | 6.4 | 11.3 | 0.00 | 0.00 | 0.00 | 39 | 1015.1 |
| 20260901001403 | 35 | 101 | 4.8 | 4.8 | 0.00 | 0.00 | 0.00 | 39 | 1015.0 |
| 20260901000858 | 35 | 105 | 6.4 | 6.4 | 0.00 | 0.00 | 0.00 | 39 | 1015.1 |
| 20260901000353 | 35 | 108 | 6.4 | 9.7 | 0.00 | 0.00 | 0.00 | 39 | 1015.1 |
| 20260831235851 | 35 | 52 | 14.5 | 16.1 | 0.00 | 0.00 | 0.00 | 38 | 1015.0 |
| 20260831235348 | 35 | 92 | 6.4 | 9.7 | 0.00 | 0.00 | 0.00 | 38 | 1014.9 |
| 20260831234842 | 35 | 89 | 11.3 | 12.9 | 0.00 | 0.00 | 0.00 | 38 | 1014.9 |
| 20260831234337 | 35 | 80 | 6.4 | 14.5 | 0.00 | 0.00 | 0.00 | 38 | 1014.9 |
| 20260831233832 | 35 | 77 | 8.0 | 9.7 | 0.00 | 0.00 | 0.00 | 38 | 1014.8 |
| 20260831233327 | 35 | 59 | 6.4 | 9.7 | 0.00 | 0.00 | 0.00 | 38 | 1014.9 |
| 20260831232823 | 35 | 76 | 12.9 | 17.7 | 0.00 | 0.00 | 0.00 | 38 | 1014.9 |
| 20260831232319 | 35 | 66 | 6.4 | 9.7 | 0.00 | 0.00 | 0.00 | 39 | 1015.0 |
| 20260831231815 | 35 | 89 | 9.7 | 12.9 | 0.00 | 0.00 | 0.00 | 38 | 1014.9 |
| 20260831231311 | 35 | 56 | 14.5 | 16.1 | 0.00 | 0.00 | 0.00 | 38 | 1014.9 |
| 20260831230806 | 35 | 49 | 6.4 | 9.7 | 0.00 | 0.00 | 0.00 | 39 | 1015.1 |
| 20260831230301 | 35 | 76 | 6.4 | 6.4 | 0.00 | 0.00 | 0.00 | 38 | 1015.0 |
| 20260831225800 | 35 | 94 | 11.3 | 12.9 | 0.00 | 0.00 | 0.00 | 38 | 1015.0 |
| 20260831225255 | 36 | 102 | 12.9 | 17.7 | 0.00 | 0.00 | 0.00 | 39 | 1015.0 |
| 20260831224751 | 36 | 32 | 4.8 | 6.4 | 0.00 | 0.00 | 0.00 | 39 | 1014.9 |
| 20260831224246 | 36 | 156 | 6.4 | 6.4 | 0.00 | 0.00 | 0.00 | 38 | 1015.0 |
| 20260831223741 | 36 | 123 | 4.8 | 9.7 | 0.00 | 0.00 | 0.00 | 38 | 1015.2 |
| 20260831223237 | 36 | 42 | 6.4 | 6.4 | 0.00 | 0.00 | 0.00 | 37 | 1015.2 |
| 20260831222733 | 36 | 108 | 9.7 | 12.9 | 0.00 | 0.00 | 0.00 | 36 | 1015.2 |
| 20260831222228 | 36 | 129 | 8.0 | 11.3 | 0.00 | 0.00 | 0.00 | 36 | 1015.3 |
| 20260831221724 | 36 | 147 | 12.9 | 20.9 | 0.00 | 0.00 | 0.00 | 36 | 1015.1 |
| 20260831221219 | 36 | 118 | 3.2 | 4.8 | 0.00 | 0.00 | 0.00 | 38 | 1015.2 |
| 20260831220714 | 36 | 236 | 4.8 | 4.8 | 0.00 | 0.00 | 0.00 | 38 | 1015.2 |
| 20260831220209 | 35 | 185 | 1.6 | 3.2 | 0.00 | 0.00 | 0.00 | 38 | 1015.2 |
| 20260831215704 | 35 | 175 | 6.4 | 6.4 | 0.00 | 0.00 | 0.00 | 38 | 1015.4 |
| 20260831215200 | 36 | 130 | 4.8 | 6.4 | 0.00 | 0.00 | 0.00 | 38 | 1015.5 |
| 20260831214657 | 35 | 118 | 3.2 | 4.8 | 0.00 | 0.00 | 0.00 | 40 | 1015.6 |
| 20260831214154 | 35 | 120 | 6.4 | 11.3 | 0.00 | 0.00 | 0.00 | 40 | 1015.6 |
| 20260831213649 | 35 | 191 | 3.2 | 4.8 | 0.00 | 0.00 | 0.00 | 40 | 1015.6 |
| 20260831213145 | 35 | 116 | 12.9 | 16.1 | 0.00 | 0.00 | 0.00 | 40 | 1015.7 |
| 20260831212640 | 35 | 56 | 4.8 | 9.7 | 0.00 | 0.00 | 0.00 | 42 | 1015.7 |
| 20260831212137 | 35 | 156 | 6.4 | 6.4 | 0.00 | 0.00 | 0.00 | 40 | 1015.7 |
| 20260831211635 | 35 | 66 | 11.3 | 16.1 | 0.00 | 0.00 | 0.00 | 39 | 1015.8 |
| 20260831211130 | 35 | 191 | 9.7 | 11.3 | 0.00 | 0.00 | 0.00 | 41 | 1016.0 |
| 20260831210625 | 35 | 150 | 6.4 | 9.7 | 0.00 | 0.00 | 0.00 | 42 | 1016.2 |
| 20260831210121 | 35 | 147 | 4.8 | 6.4 | 0.00 | 0.00 | 0.00 | 42 | 1016.1 |
| 20260831205620 | 35 | 101 | 12.9 | 14.5 | 0.00 | 0.00 | 0.00 | 43 | 1016.1 |
| 20260831205116 | 35 | 140 | 4.8 | 4.8 | 0.00 | 0.00 | 0.00 | 43 | 1016.1 |
| 20260831204616 | 35 | 214 | 6.4 | 6.4 | 0.00 | 0.00 | 0.00 | 41 | 1016.3 |
| 20260831204114 | 35 | 182 | 16.1 | 16.1 | 0.00 | 0.00 | 0.00 | 42 | 1016.5 |
| 20260831203609 | 35 | 126 | 9.7 | 12.9 | 0.00 | 0.00 | 0.00 | 42 | 1016.7 |
| 20260831203108 | 34 | 173 | 6.4 | 6.4 | 0.00 | 0.00 | 0.00 | 45 | 1016.8 |
| 20260831202608 | 34 | 90 | 6.4 | 6.4 | 0.00 | 0.00 | 0.00 | 47 | 1016.6 |
| 20260831202107 | 35 | 102 | 3.2 | 4.8 | 0.00 | 0.00 | 0.00 | 46 | 1016.8 |
| 20260831201606 | 35 | 216 | 3.2 | 4.8 | 0.00 | 0.00 | 0.00 | 43 | 1016.9 |
| 20260831201101 | 34 | 150 | 6.4 | 9.7 | 0.00 | 0.00 | 0.00 | 45 | 1016.8 |
| 20260831200557 | 33 | 98 | 4.8 | 4.8 | 0.00 | 0.00 | 0.00 | 48 | 1017.0 |
| 20260831200052 | 33 | 145 | 11.3 | 12.9 | 0.00 | 0.00 | 0.00 | 47 | 1017.0 |
| 20260831195548 | 33 | 36 | 6.4 | 9.7 | 0.00 | 0.00 | 0.00 | 48 | 1017.2 |
| 20260831195043 | 33 | 157 | 3.2 | 4.8 | 0.00 | 0.00 | 0.00 | 47 | 1017.2 |
| 20260831194538 | 35 | 196 | 3.2 | 4.8 | 0.00 | 0.00 | 0.00 | 46 | 1017.2 |
| 20260831194033 | 35 | 97 | 6.4 | 9.7 | 0.00 | 0.00 | 0.00 | 46 | 1017.2 |
| 20260831193528 | 35 | 190 | 12.9 | 16.1 | 0.00 | 0.00 | 0.00 | 47 | 1017.4 |
| 20260831193023 | 34 | 101 | 9.7 | 11.3 | 0.00 | 0.00 | 0.00 | 49 | 1017.4 |
| 20260831192517 | 34 | 94 | 6.4 | 11.3 | 0.00 | 0.00 | 0.00 | 48 | 1017.4 |
| 20260831192012 | 33 | 152 | 3.2 | 6.4 | 0.00 | 0.00 | 0.00 | 48 | 1017.5 |
| 20260831191503 | 35 | 92 | 3.2 | 4.8 | 0.00 | 0.00 | 0.00 | 46 | 1017.7 |
| 20260831190959 | 34 | 164 | 16.1 | 17.7 | 0.00 | 0.00 | 0.00 | 48 | 1017.6 |
| 20260831190454 | 33 | 151 | 8.0 | 11.3 | 0.00 | 0.00 | 0.00 | 48 | 1017.9 |
| 20260831185952 | 33 | 207 | 4.8 | 6.4 | 0.00 | 0.00 | 0.00 | 50 | 1017.9 |
| 20260831185449 | 33 | 201 | 8.0 | 9.7 | 0.00 | 0.00 | 0.00 | 49 | 1017.9 |
| 20260831184949 | 33 | 135 | 8.0 | 9.7 | 0.00 | 0.00 | 0.00 | 50 | 1017.8 |
| 20260831184443 | 33 | 142 | 6.4 | 9.7 | 0.00 | 0.00 | 0.00 | 50 | 1017.9 |
| 20260831183939 | 33 | 199 | 9.7 | 12.9 | 0.00 | 0.00 | 0.00 | 51 | 1017.9 |
| 20260831183437 | 33 | 121 | 14.5 | 20.9 | 0.00 | 0.00 | 0.00 | 50 | 1018.2 |
| 20260831182932 | 33 | 188 | 8.0 | 9.7 | 0.00 | 0.00 | 0.00 | 50 | 1018.3 |
| 20260831182427 | 33 | 151 | 11.3 | 12.9 | 0.00 | 0.00 | 0.00 | 51 | 1018.3 |
| 20260831181922 | 33 | 153 | 9.7 | 14.5 | 0.00 | 0.00 | 0.00 | 51 | 1018.3 |
| 20260831181417 | 32 | 119 | 4.8 | 6.4 | 0.00 | 0.00 | 0.00 | 54 | 1018.4 |
| 20260831180912 | 33 | 67 | 14.5 | 22.5 | 0.00 | 0.00 | 0.00 | 53 | 1018.3 |
| 20260831180406 | 33 | 134 | 1.6 | 3.2 | 0.00 | 0.00 | 0.00 | 55 | 1018.5 |
| 20260831175905 | 32 | 106 | 11.3 | 12.9 | 0.00 | 0.00 | 0.00 | 53 | 1018.4 |
| 20260831175402 | 33 | 186 | 6.4 | 9.7 | 0.00 | 0.00 | 0.00 | 52 | 1018.6 |
| 20260831174857 | 32 | 111 | 0.0 | 1.6 | 0.00 | 0.00 | 0.00 | 54 | 1018.6 |
| 20260831174347 | 32 | 55 | 6.4 | 9.7 | 0.00 | 0.00 | 0.00 | 55 | 1018.8 |
| 20260831173846 | 33 | 172 | 9.7 | 12.9 | 0.00 | 0.00 | 0.00 | 55 | 1018.9 |
| 20260831173340 | 32 | 185 | 12.9 | 14.5 | 0.00 | 0.00 | 0.00 | 52 | 1019.0 |
| 20260831172836 | 32 | 176 | 9.7 | 11.3 | 0.00 | 0.00 | 0.00 | 53 | 1019.1 |
| 20260831172331 | 32 | 88 | 19.3 | 22.5 | 0.00 | 0.00 | 0.00 | 54 | 1018.9 |
| 20260831171831 | 32 | 146 | 8.0 | 12.9 | 0.00 | 0.00 | 0.00 | 56 | 1019.0 |
| 20260831171327 | 32 | 76 | 4.8 | 4.8 | 0.00 | 0.00 | 0.00 | 58 | 1019.1 |
| 20260831170824 | 32 | 75 | 6.4 | 11.3 | 0.00 | 0.00 | 0.00 | 58 | 1019.2 |
| 20260831170320 | 32 | 179 | 6.4 | 6.4 | 0.00 | 0.00 | 0.00 | 58 | 1019.4 |
| 20260831165816 | 32 | 170 | 12.9 | 14.5 | 0.00 | 0.00 | 0.00 | 59 | 1019.5 |
| 20260831165312 | 31 | 164 | 12.9 | 14.5 | 0.00 | 0.00 | 0.00 | 57 | 1019.3 |
| 20260831164808 | 31 | 178 | 8.0 | 11.3 | 0.00 | 0.00 | 0.00 | 60 | 1019.2 |
| 20260831164304 | 31 | 206 | 14.5 | 16.1 | 0.00 | 0.00 | 0.00 | 60 | 1019.3 |
| 20260831163759 | 31 | 139 | 8.0 | 12.9 | 0.00 | 0.00 | 0.00 | 59 | 1019.1 |
| 20260831163255 | 31 | 77 | 3.2 | 4.8 | 0.00 | 0.00 | 0.00 | 60 | 1019.3 |
| 20260831162753 | 31 | 144 | 9.7 | 16.1 | 0.00 | 0.00 | 0.00 | 59 | 1019.1 |
| 20260831162248 | 31 | 158 | 8.0 | 11.3 | 0.00 | 0.00 | 0.00 | 64 | 1019.4 |
| 20260831161742 | 30 | 83 | 8.0 | 9.7 | 0.00 | 0.00 | 0.00 | 63 | 1019.1 |
| 20260831161238 | 31 | 120 | 9.7 | 14.5 | 0.00 | 0.00 | 0.00 | 65 | 1019.1 |
| 20260831160738 | 30 | 128 | 3.2 | 4.8 | 0.00 | 0.00 | 0.00 | 68 | 1019.2 |
| 20260831160228 | 30 | 132 | 12.9 | 16.1 | 0.00 | 0.00 | 0.00 | 69 | 1019.2 |
| 20260831155727 | 30 | 93 | 6.4 | 9.7 | 0.00 | 0.00 | 0.00 | 68 | 1019.1 |
| 20260831155223 | 30 | 170 | 0.0 | 0.0 | 0.00 | 0.00 | 0.00 | 68 | 1019.2 |
| 20260831154719 | 29 | 179 | 4.8 | 6.4 | 0.00 | 0.00 | 0.00 | 70 | 1019.3 |
| 20260831154215 | 30 | 157 | 6.4 | 6.4 | 0.00 | 0.00 | 0.00 | 71 | 1019.2 |
| 20260831153713 | 29 | 81 | 3.2 | 4.8 | 0.00 | 0.00 | 0.00 | 73 | 1019.2 |
| 20260831153209 | 30 | 121 | 6.4 | 6.4 | 0.00 | 0.00 | 0.00 | 72 | 1019.2 |
| 20260831152705 | 29 | 130 | 3.2 | 4.8 | 0.00 | 0.00 | 0.00 | 73 | 1019.2 |
| 20260831152200 | 30 | 120 | 9.7 | 11.3 | 0.00 | 0.00 | 0.00 | 72 | 1019.1 |
| 20260831151655 | 30 | 178 | 11.3 | 12.9 | 0.00 | 0.00 | 0.00 | 72 | 1019.2 |
| 20260831151149 | 29 | 135 | 11.3 | 12.9 | 0.00 | 0.00 | 0.00 | 72 | 1019.2 |
| 20260831150644 | 29 | 181 | 9.7 | 11.3 | 0.00 | 0.00 | 0.00 | 73 | 1019.0 |
| 20260831150140 | 29 | 110 | 3.2 | 4.8 | 0.00 | 0.00 | 0.00 | 73 | 1018.9 |
| 20260831145638 | 29 | 154 | 1.6 | 3.2 | 0.00 | 0.00 | 0.00 | 75 | 1018.8 |
| 20260831145135 | 28 | 233 | 3.2 | 3.2 | 0.00 | 0.00 | 0.00 | 76 | 1018.7 |
| 20260831144631 | 28 | 216 | 3.2 | 4.8 | 0.00 | 0.00 | 0.00 | 78 | 1018.8 |
| 20260831144126 | 28 | 162 | 8.0 | 9.7 | 0.00 | 0.00 | 0.00 | 79 | 1018.9 |
| 20260831143626 | 27 | 207 | 6.4 | 6.4 | 0.00 | 0.00 | 0.00 | 80 | 1019.0 |
| 20260831143121 | 27 | 201 | 8.0 | 11.3 | 0.00 | 0.00 | 0.00 | 80 | 1018.9 |
| 20260831142618 | 27 | 267 | 4.8 | 4.8 | 0.00 | 0.00 | 0.00 | 83 | 1018.8 |
| 20260831142113 | 27 | 218 | 8.0 | 9.7 | 0.00 | 0.00 | 0.00 | 83 | 1018.9 |
| 20260831141612 | 27 | 231 | 3.2 | 4.8 | 0.00 | 0.00 | 0.00 | 84 | 1018.9 |
| 20260831141107 | 27 | 206 | 6.4 | 11.3 | 0.00 | 0.00 | 0.00 | 85 | 1018.8 |
| 20260831140607 | 27 | 216 | 4.8 | 4.8 | 0.00 | 0.00 | 0.00 | 86 | 1018.7 |
| 20260831135559 | 26 | 243 | 4.8 | 4.8 | 0.00 | 0.00 | 0.00 | 87 | 1018.6 |
| 20260831135055 | 27 | 225 | 8.0 | 12.9 | 0.00 | 0.00 | 0.00 | 86 | 1018.5 |
| 20260831134550 | 26 | 232 | 6.4 | 6.4 | 0.00 | 0.00 | 0.00 | 87 | 1018.7 |
| 20260831134045 | 26 | 180 | 6.4 | 6.4 | 0.00 | 0.00 | 0.00 | 88 | 1018.5 |
| 20260831133544 | 26 | 243 | 3.2 | 4.8 | 0.00 | 0.00 | 0.00 | 88 | 1018.5 |
| 20260831133039 | 26 | 212 | 6.4 | 9.7 | 0.00 | 0.00 | 0.00 | 89 | 1018.5 |
| 20260831132536 | 26 | 197 | 6.4 | 9.7 | 0.00 | 0.00 | 0.00 | 89 | 1018.2 |
| 20260831132034 | 26 | 166 | 8.0 | 9.7 | 0.00 | 0.00 | 0.00 | 89 | 1018.4 |
| 20260831131529 | 26 | 194 | 9.7 | 12.9 | 0.00 | 0.00 | 0.00 | 89 | 1018.3 |
| 20260831131025 | 26 | 176 | 11.3 | 11.3 | 0.00 | 0.00 | 0.00 | 89 | 1018.3 |
| 20260831130520 | 26 | 173 | 6.4 | 9.7 | 0.00 | 0.00 | 0.00 | 90 | 1018.4 |
| 20260831130016 | 26 | 204 | 4.8 | 4.8 | 0.00 | 0.00 | 0.00 | 89 | 1018.2 |
| 20260831125509 | 26 | 210 | 3.2 | 3.2 | 0.00 | 0.00 | 0.00 | 89 | 1018.2 |
| 20260831125005 | 26 | 158 | 4.8 | 6.4 | 0.00 | 0.00 | 0.00 | 90 | 1017.9 |
| 20260831124501 | 26 | 218 | 6.4 | 11.3 | 0.00 | 0.00 | 0.00 | 90 | 1017.8 |
| 20260831123956 | 26 | 182 | 6.4 | 6.4 | 0.00 | 0.00 | 0.00 | 90 | 1017.8 |
| 20260831123455 | 26 | 206 | 3.2 | 3.2 | 0.00 | 0.00 | 0.00 | 90 | 1017.8 |
| 20260831122949 | 26 | 185 | 4.8 | 9.7 | 0.00 | 0.00 | 0.00 | 90 | 1017.7 |
| 20260831122445 | 26 | 208 | 4.8 | 6.4 | 0.00 | 0.00 | 0.00 | 90 | 1017.7 |
| 20260831121940 | 26 | 203 | 3.2 | 4.8 | 0.00 | 0.00 | 0.00 | 90 | 1017.8 |
| 20260831121436 | 26 | 224 | 4.8 | 6.4 | 0.00 | 0.00 | 0.00 | 90 | 1017.9 |
| 20260831120931 | 26 | 205 | 6.4 | 6.4 | 0.00 | 0.00 | 0.00 | 90 | 1017.7 |
| 20260831120426 | 26 | 225 | 4.8 | 6.4 | 0.00 | 0.00 | 0.00 | 89 | 1017.6 |
| 20260831115926 | 26 | 197 | 6.4 | 6.4 | 0.00 | 0.00 | 0.00 | 89 | 1017.7 |
| 20260831115422 | 26 | 221 | 8.0 | 11.3 | 0.00 | 0.00 | 0.00 | 89 | 1017.6 |
| 20260831114922 | 26 | 189 | 3.2 | 3.2 | 0.00 | 0.00 | 0.00 | 89 | 1017.7 |
| 20260831114421 | 26 | 185 | 3.2 | 4.8 | 0.00 | 0.00 | 0.00 | 89 | 1017.8 |
| 20260831113916 | 26 | 123 | 6.4 | 9.7 | 0.00 | 0.00 | 0.00 | 89 | 1017.5 |
| 20260831113416 | 26 | 213 | 8.0 | 9.7 | 0.00 | 0.00 | 0.00 | 89 | 1017.7 |
| 20260831112911 | 26 | 212 | 3.2 | 4.8 | 0.00 | 0.00 | 0.00 | 89 | 1017.8 |
| 20260831112406 | 26 | 199 | 6.4 | 9.7 | 0.00 | 0.00 | 0.00 | 89 | 1017.8 |
| 20260831111901 | 26 | 218 | 4.8 | 4.8 | 0.00 | 0.00 | 0.00 | 89 | 1017.6 |
| 20260831111357 | 26 | 196 | 8.0 | 9.7 | 0.00 | 0.00 | 0.00 | 89 | 1017.6 |
| 20260831110853 | 26 | 169 | 1.6 | 3.2 | 0.00 | 0.00 | 0.00 | 89 | 1017.4 |
| 20260831110353 | 26 | 209 | 6.4 | 9.7 | 0.00 | 0.00 | 0.00 | 89 | 1017.4 |
| 20260831105851 | 26 | 215 | 6.4 | 9.7 | 0.00 | 0.00 | 0.00 | 88 | 1017.5 |
| 20260831105347 | 26 | 184 | 4.8 | 6.4 | 0.00 | 0.00 | 0.00 | 89 | 1017.5 |
| 20260831104842 | 26 | 175 | 4.8 | 6.4 | 0.00 | 0.00 | 0.00 | 89 | 1017.3 |
| 20260831104338 | 26 | 192 | 8.0 | 11.3 | 0.00 | 0.00 | 0.00 | 88 | 1017.5 |
| 20260831103833 | 26 | 199 | 9.7 | 11.3 | 0.00 | 0.00 | 0.00 | 88 | 1017.4 |
| 20260831103328 | 26 | 229 | 3.2 | 4.8 | 0.00 | 0.00 | 0.00 | 89 | 1017.6 |
| 20260831102823 | 26 | 189 | 8.0 | 9.7 | 0.00 | 0.00 | 0.00 | 89 | 1017.5 |
| 20260831102318 | 26 | 201 | 6.4 | 6.4 | 0.00 | 0.00 | 0.00 | 88 | 1017.5 |
| 20260831101814 | 26 | 206 | 3.2 | 3.2 | 0.00 | 0.00 | 0.00 | 88 | 1017.6 |
| 20260831101309 | 26 | 197 | 4.8 | 6.4 | 0.00 | 0.00 | 0.00 | 88 | 1017.5 |
| 20260831100805 | 26 | 195 | 6.4 | 9.7 | 0.00 | 0.00 | 0.00 | 88 | 1017.7 |
| 20260831100301 | 26 | 195 | 4.8 | 4.8 | 0.00 | 0.00 | 0.00 | 88 | 1017.8 |
| 20260831095800 | 26 | 182 | 6.4 | 6.4 | 0.00 | 0.00 | 0.00 | 88 | 1017.6 |
| 20260831095254 | 26 | 222 | 8.0 | 11.3 | 0.00 | 0.00 | 0.00 | 89 | 1017.6 |
| 20260831094749 | 26 | 212 | 1.6 | 1.6 | 0.00 | 0.00 | 0.00 | 89 | 1017.5 |
| 20260831094244 | 26 | 163 | 4.8 | 4.8 | 0.00 | 0.00 | 0.00 | 89 | 1017.6 |
| 20260831093740 | 26 | 205 | 3.2 | 4.8 | 0.00 | 0.00 | 0.00 | 89 | 1017.4 |
| 20260831093235 | 26 | 165 | 3.2 | 4.8 | 0.00 | 0.00 | 0.00 | 89 | 1017.6 |
| 20260831092732 | 26 | 170 | 4.8 | 6.4 | 0.00 | 0.00 | 0.00 | 89 | 1017.4 |
| 20260831092227 | 26 | 206 | 3.2 | 4.8 | 0.00 | 0.00 | 0.00 | 88 | 1017.5 |
| 20260831091726 | 26 | 189 | 8.0 | 11.3 | 0.00 | 0.00 | 0.00 | 88 | 1017.5 |
| 20260831091222 | 26 | 204 | 8.0 | 11.3 | 0.00 | 0.00 | 0.00 | 88 | 1017.6 |
| 20260831090717 | 26 | 192 | 6.4 | 6.4 | 0.00 | 0.00 | 0.00 | 87 | 1017.2 |
| 20260831090214 | 26 | 176 | 6.4 | 6.4 | 0.00 | 0.00 | 0.00 | 87 | 1017.2 |
| 20260831085709 | 26 | 187 | 14.5 | 16.1 | 0.00 | 0.00 | 0.00 | 87 | 1017.4 |
| 20260831085204 | 26 | 204 | 6.4 | 6.4 | 0.00 | 0.00 | 0.00 | 88 | 1017.4 |
| 20260831084659 | 26 | 185 | 3.2 | 4.8 | 0.00 | 0.00 | 0.00 | 88 | 1017.5 |
| 20260831084155 | 26 | 176 | 4.8 | 4.8 | 0.00 | 0.00 | 0.00 | 88 | 1017.3 |
| 20260831083651 | 26 | 96 | 3.2 | 4.8 | 0.00 | 0.00 | 0.00 | 88 | 1017.5 |
| 20260831083146 | 26 | 188 | 8.0 | 12.9 | 0.00 | 0.00 | 0.00 | 88 | 1017.4 |
| 20260831082644 | 26 | 180 | 11.3 | 14.5 | 0.00 | 0.00 | 0.00 | 87 | 1017.4 |
| 20260831082140 | 26 | 172 | 14.5 | 17.7 | 0.00 | 0.00 | 0.00 | 87 | 1017.4 |
| 20260831081636 | 26 | 144 | 8.0 | 9.7 | 0.00 | 0.00 | 0.00 | 87 | 1017.5 |
| 20260831081132 | 26 | 181 | 4.8 | 9.7 | 0.00 | 0.00 | 0.00 | 86 | 1017.5 |
| 20260831080627 | 26 | 190 | 14.5 | 16.1 | 0.00 | 0.00 | 0.00 | 86 | 1017.5 |
| 20260831080121 | 26 | 122 | 9.7 | 9.7 | 0.00 | 0.00 | 0.00 | 86 | 1017.6 |
| 20260831075618 | 26 | 132 | 8.0 | 11.3 | 0.00 | 0.00 | 0.00 | 85 | 1017.5 |
| 20260831075113 | 26 | 183 | 6.4 | 16.1 | 0.00 | 0.00 | 0.00 | 84 | 1017.4 |
| 20260831074612 | 26 | 131 | 4.8 | 11.3 | 0.00 | 0.00 | 0.00 | 84 | 1017.2 |
| 20260831074107 | 26 | 156 | 14.5 | 20.9 | 0.00 | 0.00 | 0.00 | 83 | 1017.5 |
| 20260831073602 | 27 | 177 | 19.3 | 24.1 | 0.00 | 0.00 | 0.00 | 82 | 1017.6 |
| 20260831073101 | 27 | 182 | 19.3 | 24.1 | 0.00 | 0.00 | 0.00 | 82 | 1017.5 |
| 20260831072556 | 27 | 165 | 3.2 | 4.8 | 0.00 | 0.00 | 0.00 | 79 | 1017.5 |
| 20260831072054 | 27 | 168 | 3.2 | 4.8 | 0.00 | 0.00 | 0.00 | 78 | 1017.5 |
| 20260831071551 | 27 | 172 | 3.2 | 3.2 | 0.00 | 0.00 | 0.00 | 78 | 1017.7 |
| 20260831071047 | 27 | 139 | 3.2 | 4.8 | 0.00 | 0.00 | 0.00 | 78 | 1017.5 |
| 20260831070546 | 27 | 142 | 8.0 | 11.3 | 0.00 | 0.00 | 0.00 | 78 | 1017.5 |
| 20260831070041 | 27 | 124 | 4.8 | 4.8 | 0.00 | 0.00 | 0.00 | 78 | 1017.5 |
| 20260831065538 | 27 | 166 | 11.3 | 14.5 | 0.00 | 0.00 | 0.00 | 77 | 1017.5 |
| 20260831065033 | 27 | 155 | 3.2 | 3.2 | 0.00 | 0.00 | 0.00 | 77 | 1017.7 |
| 20260831064528 | 27 | 161 | 3.2 | 4.8 | 0.00 | 0.00 | 0.00 | 76 | 1017.6 |
| 20260831064024 | 27 | 118 | 4.8 | 4.8 | 0.00 | 0.00 | 0.00 | 76 | 1017.7 |
| 20260831063519 | 27 | 167 | 12.9 | 14.5 | 0.00 | 0.00 | 0.00 | 76 | 1017.7 |
| 20260831063014 | 27 | 185 | 6.4 | 6.4 | 0.00 | 0.00 | 0.00 | 75 | 1017.6 |
| 20260831062509 | 28 | 140 | 1.6 | 3.2 | 0.00 | 0.00 | 0.00 | 75 | 1017.5 |
| 20260831062008 | 28 | 132 | 9.7 | 12.9 | 0.00 | 0.00 | 0.00 | 74 | 1017.5 |
| 20260831061506 | 28 | 146 | 6.4 | 12.9 | 0.00 | 0.00 | 0.00 | 74 | 1017.7 |
| 20260831061002 | 28 | 135 | 6.4 | 9.7 | 0.00 | 0.00 | 0.00 | 73 | 1017.5 |
| 20260831060456 | 28 | 154 | 6.4 | 9.7 | 0.00 | 0.00 | 0.00 | 73 | 1017.4 |
| 20260831055951 | 28 | 193 | 8.0 | 11.3 | 0.00 | 0.00 | 0.00 | 72 | 1017.6 |
| 20260831055446 | 28 | 149 | 6.4 | 9.7 | 0.00 | 0.00 | 0.00 | 71 | 1017.4 |
| 20260831054941 | 28 | 159 | 6.4 | 11.3 | 0.00 | 0.00 | 0.00 | 71 | 1017.4 |
| 20260831054436 | 28 | 208 | 6.4 | 9.7 | 0.00 | 0.00 | 0.00 | 71 | 1017.4 |
| 20260831053936 | 28 | 116 | 6.4 | 6.4 | 0.00 | 0.00 | 0.00 | 70 | 1017.4 |
| 20260831053433 | 28 | 166 | 9.7 | 12.9 | 0.00 | 0.00 | 0.00 | 69 | 1017.3 |
| 20260831052928 | 28 | 205 | 9.7 | 11.3 | 0.00 | 0.00 | 0.00 | 69 | 1017.3 |
| 20260831052428 | 28 | 187 | 9.7 | 11.3 | 0.00 | 0.00 | 0.00 | 69 | 1017.3 |